Flag for Qatar Weather past 2 weeks in Al-Jamiliyah, Qatar

Now
90 °F

Sunny.


Feels Like: 89 °F
Forecast: 81 / 92 °F
Wind: 22 mph from Northwest

Location: Al Udeid

Current Time: Oct 23, 2014 at 3:11:19 PM

Latest Report: Oct 23, 2014 at 1:58 PM


Visibility: 6 mi

Pressure: 29.96 "Hg

Humidity: 34%

Dew point: 58 °F

Location of Al-JamiliyahLocation

Historic Weather in Al-Jamiliyah — Graph

°F

Al-Jamiliyah temperature yesterday

Maximum temperature yesterday: 95 °F (at 12:58 PM)
Minimum temperature yesterday: 78 °F (at 11:58 PM)
Average temperature yesterday: 85 °F

Past Weeks' High & Low Weather Summary

 TemperatureHumidityPressure
High102 °F (Oct 17, 2:58 PM)94% (Oct 12, 6:58 AM)30.04 "Hg (Oct 12, 6:58 AM)
Low74 °F (Oct 23, 5:58 AM)12% (Oct 17, 2:58 PM)29.77 "Hg (Oct 8, 1:58 PM)
Average88 °F54%29.89 "Hg
* Reported Oct 8 1:58 PM — Oct 23 1:58 PM, Al-Jamiliyah, Weather by CustomWeather, © 2014

Note: Actual official high and low records may vary slightly from our data, if they occured in-between our weather recording intervals... More about our weather records

Advertising

Al-Jamiliyah weather history for previous 24 hours

 ConditionsComfort  
Time TempWeatherWind HumidityBarometerVisibility
1:58 PM
Oct 23
90 °FSunny.22 mph34%29.96 "Hg6 mi
1:03 PM90 °FSunny.20 mph33%29.97 "Hg2 mi
12:58 PM91 °FSunny.23 mph33%29.97 "Hg6 mi
11:58 AM91 °FSunny.20 mph34%29.99 "HgN/A
10:58 AM89 °FSunny.20 mph38%30.02 "HgN/A
9:58 AM87 °FSunny.18 mph43%30.03 "HgN/A
8:58 AM85 °FSunny.20 mph48%30.04 "HgN/A
7:58 AM82 °FSunny.13 mph54%30.04 "HgN/A
6:58 AM77 °FSunny.9 mph62%30.03 "HgN/A
5:58 AM74 °FClear.7 mph66%30.02 "HgN/A
4:58 AM75 °FClear.6 mph67%30.00 "HgN/A
3:58 AM75 °FClear.8 mph67%29.99 "HgN/A
2:58 AM75 °FClear.10 mph67%29.99 "HgN/A
1:58 AM77 °FClear.9 mph64%29.99 "HgN/A
12:58 AM78 °FClear.14 mph62%30.00 "HgN/A
11:58 PM
Oct 22
78 °FClear.12 mph61%30.01 "HgN/A
10:58 PM78 °FClear.13 mph60%30.01 "HgN/A
9:58 PM79 °FClear.14 mph58%30.02 "HgN/A
8:58 PM81 °FClear.16 mph55%30.02 "HgN/A
7:58 PM82 °FClear.16 mph50%30.02 "HgN/A
6:58 PM83 °FSunny.16 mph45%30.01 "HgN/A
5:58 PM85 °FSunny.17 mph41%29.99 "HgN/A
4:58 PM88 °FSunny.14 mph35%29.98 "HgN/A
3:58 PM90 °FSunny.16 mph32%29.97 "HgN/A
Weather by CustomWeather, © 2014

See weather overviewHow to use our weather pages